Terug naar catalogus

DELTA 1 R/B

ActiefHEO
NORAD 515·ROCKET BODY·🇺🇸 United States

Gelanceerd Dec 13, 1962 vanaf Cape Canaveral Space Force Station

Loading…

Volgende Passages (komende 24 uur)

TLE

VersSource: Space-Track

Epoch: Sep 11, 2026, 00:21 UTC

1 00515U 62068B   26254.01471663 -.00000028  00000-0  00000-0 0  9991
2 00515  47.4944 247.8743 2830347  23.2609 347.4180  7.79274459814542

Volg DELTA 1 R/B in realtime met AllMySat

Download on the App Store